Regional & State Weather Roundups


387 
ASUS45 KREV 191110
RWRNV 
NEVADA REGIONAL WEATHER ROUNDUP
NATIONAL WEATHER SERVICE RENO NV
300 AM PST MON FEB 19 2018
NOTE: "FAIR" INDICATES FEW OR NO CLOUDS BELOW 12,000 FEET WITH NO
SIGNIFICANT WEATHER AND/OR OBSTRUCTIONS TO VISIBILITY.
NVZ001-003-004-191200-
WESTERN NEVADA
  
CITY           SKY/WX    TMP DP  RH WIND       PRES   REMARKS
RENO           MOCLDY    25  10  53 W9        29.69S                  
CARSON CITY    FAIR      23   5  46 W10       29.70F                  
MINDEN         FAIR      19   5  53 SW9       29.71S                  
SLIDE MTN        N/A      1   0  92 W21         N/A  WCI -20          
FALLON         MOCLDY    19  18  95 SW3       29.69S                  
LOVELOCK       LGT SNOW  23  21  92 N9        29.68R VSB 3/4          
HAWTHORNE      PTCLDY    27  14  59 VRB5G16   29.66F                  
$$
NVZ002-CAZ072-073-191200-
NORTHERN AND CENTRAL SIERRA
  
CITY           SKY/WX    TMP DP  RH WIND       PRES   REMARKS
S. LAKE TAHOE  CLEAR     15   5  64 S8        29.64F                  
TRUCKEE        LGT SNOW  16  10  79 W6        29.66F                  
SQUAW VLY 8000 NOT AVBL                                               
SUSANVILLE     CLOUDY    23  14  68 W7        29.72R                  
BLUE CANYON    CLEAR     17  13  84 S5        29.72S                  
MAMMOTH LAKES  CLOUDY    18  -3  40 W22G28    29.59S                  
BRIDGEPORT     FLURRIES  15   4  61 VRB3      29.57F                  
$$
NVZ030-031-036-191200-
NORTHERN NEVADA
  
CITY           SKY/WX    TMP DP  RH WIND       PRES   REMARKS
ELKO           CLOUDY    20  18  92 SW3       29.55S                  
WINNEMUCCA     CLOUDY    23  17  78 W6        29.64S                  
WENDOVER       CLOUDY    28  16  60 NW14      29.52F                  
$$
NVZ035-037-191200-
CENTRAL NEVADA
  
CITY           SKY/WX    TMP DP  RH WIND       PRES   REMARKS
ELY            CLOUDY    22  13  68 N14       29.47S                  
EUREKA           N/A     16  11  80 E7        29.53F                  
$$
NVZ013-014-191200-
SOUTH CENTRAL NEVADA
  
CITY           SKY/WX    TMP DP  RH WIND       PRES   REMARKS
TONOPAH        CLOUDY    24  13  62 NW23G29   29.57S                  
$$
NVZ017-020-022-191200-
SOUTHERN NEVADA
  
CITY           SKY/WX    TMP DP  RH WIND       PRES   REMARKS
LAS VEGAS      PTCLDY    51  22  31 SW20G38   29.55R                  
N. LAS VEGAS   CLEAR     50  20  30 W24G36    29.52R                  
NELLIS AFB     CLEAR     52  22  31 SW18G26   29.51S                  
HENDERSON      CLEAR     48  23  37 SW38G46   29.51F                  
MERCURY        CLOUDY    44  19  36 SW20G32   29.51R                  
$$